Location: Middle Street
(51.7167°N, 0.0333°E)
Time: 03:14:42
(UTC+00:00)

H-2A R/B - Pass Details

Date: 20 January 2021
Orbit: 577 x 655 km, 98.5° (Epoch: 24 February)

Event Time Altitude Azimuth Distance (km) Brightness Sun altitude
Rises 18:26:50 0° 9° (N) 2,986 5.4 -17.9°
Reaches altitude 10° 18:29:12 10° 1° (N) 2,063 4.6 -18.3°
Maximum altitude 18:33:18 36° 296° (WNW) 1,030 3.6 -18.9°
Drops below altitude 10° 18:37:18 10° 230° (SW) 2,013 5.5 -19.5°
Sets 18:39:35 0° 222° (SW) 2,904 6.3 -19.9°
